1504612800.94,58330,15.06,73712.5,1.91,-0.45,-0.27,0,*7D
1504612802.15,58331,15.06,73714.8,1.89,-0.69,-0.45,0,*7F
1504612803.35,58332,15.06,73716.0,1.89,-0.45,-0.37,0,*77
1504612804.54,58333,15.06,73722.5,1.91,-0.69,-0.45,0,*74
1504612805.73,58334,15.06,73716.8,1.91,-0.57,-0.41,0,*7A
1504612806.93,58335,15.06,73722.0,1.89,-0.81,-0.65,0,*7F
1504612808.13,58336,15.06,73720.5,1.89,-0.77,-0.65,0,*75
1504612809.35,58337,15.06,73722.3,1.89,-0.69,-0.41,0,*7D
1504612810.55,58338,15.06,73722.8,1.91,-0.37,-0.27,0,*70
1504612811.76,58339,15.06,73720.8,1.89,-0.29,-0.19,0,*7A
1504612812.94,58340,15.06,73722.8,1.91,-0.37,-0.29,0,*71
1504612814.12,58341,15.06,73722.8,1.91,-0.37,-0.15,0,*7F
1504612815.33,58342,15.06,73722.3,1.91,-0.27,-0.07,0,*4E
1504612816.53,58343,15.06,73722.3,1.89,-0.29,-0.15,0,*7B
1504612817.72,58344,15.06,73722.0,1.91,-0.29,-0.15,0,*75
1504612818.9,58345,15.06,73722.3,1.91,-0.29,-0.15,0,*74
1504612820.1,58346,15.06,73720.5,1.93,-0.11,0.01,0,*66
1504612821.29,58347,15.06,73722.0,1.95,-0.73,-0.49,0,*74
1504612822.53,58348,15.0,73716.5,1.93,-0.85,-0.73,0,*7D
1504612823.71,58349,15.06,73718.5,1.91,-0.65,-0.45,0,*75
1504612824.89,58350,15.06,73718.5,1.91,-0.81,-0.65,0,*75
1504612826.08,58351,15.06,73720.5,1.91,-0.57,-0.41,0,*79
1504612827.3,58352,15.06,73720.3,1.91,-0.27,-0.15,0,*7C
1504612828.48,58353,15.06,73722.3,1.91,-0.65,-0.53,0,*79
1504612829.67,58354,15.06,73722.3,1.91,-0.53,-0.37,0,*79
1504612830.85,58355,15.06,73716.8,1.91,-0.37,-0.19,0,*76
1504612832.04,58356,15.06,73714.3,1.91,-0.29,-0.15,0,*76
1504612833.22,58357,15.06,73712.0,1.91,-0.29,-0.15,0,*77
1504612834.43,58358,15.0,73704.8,1.95,-0.23,-0.11,0,*72
1504612835.64,58359,15.06,73708.0,1.95,-0.23,-0.11,0,*73
1504612836.88,58360,15.06,73710.3,1.93,-0.41,-0.27,0,*7E
1504612838.11,58361,15.06,73706.5,1.93,-1.25,-1.13,0,*7A
1504612839.34,58362,15.06,73704.8,1.93,-0.89,-0.53,0,*7B
1504612840.57,58363,15.06,73702.0,1.93,-0.89,-0.61,0,*7B
1504612841.83,58364,15.06,73706.0,1.93,-1.01,-0.89,0,*4B
1504612843.1,58365,15.06,73716.3,1.89,-1.39,-1.05,0,*7F
1504612844.31,58366,15.06,73720.3,1.91,-0.89,-0.69,0,*74
1504612845.49,58367,15.06,73720.8,1.91,-0.65,-0.53,0,*7E
1504612846.71,58368,15.06,73714.0,1.91,-1.33,-1.05,0,*71
1504612847.92,58369,15.06,73710.8,1.89,-0.77,-0.45,0,*7D
1504612849.11,58370,15.06,73706.3,1.91,-0.65,-0.41,0,*7B
1504612850.31,58371,15.06,73708.5,1.89,-0.37,-0.07,0,*46
1504612851.51,58372,15.06,73712.5,1.89,-0.45,-0.29,0,*7C
1504612852.73,58373,15.0,73704.8,1.91,-1.17,-1.05,0,*7D
1504612853.94,58374,15.06,73710.3,1.89,-0.57,-0.45,0,*73
1504612855.17,58375,15.06,73712.3,1.89,-0.45,-0.27,0,*75
1504612856.35,58376,15.06,73712.0,1.91,-0.57,-0.37,0,*7D
1504612857.54,58377,15.06,73710.3,1.91,-0.53,-0.37,0,*78
1504612858.74,58378,15.06,73718.5,1.89,-0.19,-0.03,0,*47
1504612859.92,58379,15.06,73716.0,1.91,-0.15,0.05,0,*68
1504612861.14,58380,15.0,73716.8,1.93,-0.03,0.13,0,*6C
1504612862.33,58381,15.06,73718.5,1.95,0.09,0.25,0,*49
1504612863.53,58382,15.0,73712.5,1.93,-0.11,0.01,0,*6E
1504612864.74,58383,15.0,73712.0,1.93,-0.03,0.13,0,*6F
1504612865.93,58384,15.06,73718.8,1.95,0.01,0.25,0,*44
1504612867.14,58385,15.06,73718.5,1.95,-0.23,-0.11,0,*72
1504612868.34,58386,15.06,73720.3,1.95,-0.23,0.09,0,*65
1504612869.51,58387,15.0,73718.8,1.95,-0.15,0.09,0,*61
1504612870.72,58388,15.0,73718.8,1.95,-0.27,-0.11,0,*7B
1504612871.89,58389,15.06,73722.5,1.95,-0.15,0.09,0,*6F
1504612873.09,58390,15.06,73720.3,1.95,-0.11,0.13,0,*58
1504612874.29,58391,15.06,73722.3,1.95,-0.03,0.13,0,*6A
1504612875.49,58392,15.06,73720.5,1.95,-0.27,-0.03,0,*43
1504612876.71,58393,15.06,73722.0,1.97,-0.23,0.01,0,*6B
1504612877.91,58394,15.06,73722.8,1.99,-0.27,-0.07,0,*4D
1504612879.1,58395,15.06,73722.8,1.99,-0.07,0.13,0,*66
1504612880.3,58396,15.06,73720.0,1.99,-0.27,-0.07,0,*4F
1504612881.5,58397,15.06,73722.0,1.97,-0.33,-0.11,0,*72
1504612882.71,58398,15.06,73720.8,1.97,-0.37,-0.19,0,*71
1504612883.91,58399,15.06,73718.5,1.99,-0.27,-0.03,0,*44
1504612885.14,58400,15.06,73716.8,1.97,-0.37,-0.23,0,*7E
1504612886.34,58401,15.0,73718.3,1.97,-0.29,-0.11,0,*71
1504612887.52,58402,15.06,73718.8,1.99,-0.53,-0.33,0,*71
1504612888.78,58403,15.06,73716.8,1.97,-0.97,-0.85,0,*7B
1504612889.98,58404,15.0,73716.3,1.97,-0.49,-0.33,0,*72
1504612891.2,58405,15.06,73716.3,1.97,-0.33,-0.23,0,*7F
1504612892.43,58406,15.06,73722.5,1.97,-0.33,-0.23,0,*7C
1504612893.62,58407,15.0,73716.8,1.97,-0.29,-0.07,0,*40
1504612894.8,58408,15.06,73722.0,1.99,-0.29,-0.15,0,*72
1504612896.01,58409,15.0,73718.3,1.97,-0.69,-0.57,0,*7F
1504612897.23,58410,15.0,73716.3,1.97,-0.45,-0.23,0,*7A
1504612898.49,58411,15.06,73720.3,1.97,-1.91,-1.91,0,*7B
1504612899.7,58412,15.06,73720.0,1.95,-0.85,-0.53,0,*71
1504612900.94,58413,15.0,73720.8,1.93,-0.41,-0.27,0,*7D
1504612902.15,58414,15.0,73722.3,1.95,-0.97,-0.77,0,*72
1504612903.33,58415,15.06,73722.0,1.95,-0.73,-0.53,0,*7F
1504612904.51,58416,15.0,73716.5,1.95,-0.61,-0.33,0,*79
1504612905.69,58417,15.06,73720.0,1.95,-0.65,-0.49,0,*71
1504612906.9,58418,15.0,73716.5,1.93,-0.61,-0.41,0,*74
1504612908.13,58419,15.06,73718.8,1.93,-0.49,-0.27,0,*7F
1504612909.32,58420,15.06,73722.5,1.95,-0.73,-0.49,0,*72
1504612910.55,58421,15.0,73716.0,1.95,-0.97,-0.89,0,*75
1504612911.73,58422,15.0,73716.0,1.95,-0.65,-0.53,0,*7C
1504612912.97,58423,15.0,73716.3,1.93,-1.29,-1.01,0,*74
1504612914.18,58424,15.06,73716.3,1.93,-0.61,-0.49,0,*73
1504612915.35,58425,15.06,73718.5,1.95,-0.15,0.09,0,*6E
1504612916.56,58426,15.0,73712.8,1.93,-1.63,-1.51,0,*7A
1504612917.76,58427,15.06,73716.0,1.91,-0.57,-0.41,0,*7F
1504612918.96,58428,15.0,73714.8,1.93,-0.33,-0.11,0,*75
1504612920.14,58429,15.0,73714.5,1.95,-0.15,0.01,0,*6A
1504612921.34,58430,15.0,73712.8,1.95,-0.37,-0.27,0,*7B
1504612922.53,58431,15.06,73712.3,1.95,-0.03,0.13,0,*67
1504612923.73,58432,15.06,73714.5,1.95,-0.03,0.21,0,*65
1504612924.91,58433,15.06,73712.0,1.95,-0.11,0.09,0,*6D
1504612926.11,58434,15.06,73712.8,1.97,0.01,0.17,0,*4B
1504612927.28,58435,15.06,73712.0,1.99,-0.07,-0.03,0,*77
1504612928.5,58436,15.06,73712.3,1.99,0.21,0.41,0,*76
1504612929.67,58437,15.0,73714.3,1.99,-0.03,0.09,0,*56
1504612930.85,58438,15.0,73710.5,1.99,0.09,0.29,0,*4C
1504612932.04,58439,15.06,73714.3,1.99,0.05,0.41,0,*4F
1504612933.26,58440,15.06,73716.3,2.01,-0.03,0.17,0,*6B
1504612934.47,58441,15.06,73712.5,2.01,-0.07,0.17,0,*6E
1504612935.69,58442,15.0,73710.8,2.03,0.13,0.25,0,*76
1504612936.9,58443,15.0,73712.5,2.01,0.05,0.29,0,*4E
1504612938.1,58444,15.0,73712.3,2.03,-0.03,0.13,0,*69
1504612939.29,58445,15.0,73712.0,2.03,0.25,0.43,0,*74
1504612940.51,58446,15.06,73716.8,2.03,0.21,0.37,0,*70
1504612941.72,58447,15.0,73714.0,2.05,-0.11,-0.03,0,*43
1504612942.93,58448,15.06,73714.0,2.05,-0.53,-0.49,0,*74
1504612944.14,58449,15.06,73712.0,2.05,-0.53,-0.49,0,*75
1504612945.4,58450,15.0,73704.3,2.05,-0.85,-0.85,0,*76
1504612946.6,58451,15.0,73700.0,2.05,-0.65,-0.53,0,*72
1504612947.79,58452,15.0,73702.8,2.03,-0.49,-0.37,0,*7B
1504612948.97,58453,15.0,73702.5,2.03,-0.49,-0.41,0,*7B
1504612950.19,58454,15.06,73698.3,2.03,-1.25,-1.01,0,*72
1504612951.38,58455,15.06,73700.5,2.03,-0.65,-0.49,0,*7B
1504612952.61,58456,15.06,73700.0,2.03,-0.97,-0.85,0,*75
1504612953.85,58457,15.0,73700.0,2.01,-1.01,-0.81,0,*4C
1504612955.06,58458,15.0,73710.8,2.03,-0.97,-0.77,0,*76
1504612956.26,58459,15.0,73716.0,2.01,-0.77,-0.65,0,*78
1504612957.47,58460,15.06,73718.0,2.01,-0.69,-0.57,0,*7C
1504612958.7,58461,15.06,73716.0,2.01,-0.41,-0.27,0,*70
1504612959.95,58462,15.0,73718.3,2.01,-1.39,-1.55,0,*79
1504612961.17,58463,15.0,73714.8,2.01,-1.33,-1.17,0,*74
1504612962.38,58464,15.0,73714.8,1.97,-0.57,-0.37,0,*7F
1504612963.56,58465,15.06,73712.5,1.99,-0.41,-0.33,0,*73
1504612964.75,58466,15.0,73704.0,1.99,-0.77,-0.77,0,*75
1504612965.92,58467,15.0,73694.8,1.99,-0.65,-0.53,0,*71
1504612967.14,58468,15.06,73692.3,1.99,-3.55,-2.95,0,*76
1504612968.36,58469,15.06,73700.3,1.97,-3.95,-3.87,0,*77
1504612969.6,58470,15.0,73704.0,1.93,-1.83,-1.75,0,*71
1504612970.81,58471,15.0,73704.3,1.95,-0.89,-0.73,0,*7A
1504612972.07,58472,15.0,73706.0,1.93,-0.97,-0.85,0,*79
1504612973.25,58473,15.0,73710.3,1.95,-0.73,-0.53,0,*7F
1504612974.46,58474,15.06,73712.0,1.93,-0.65,-0.49,0,*72
1504612975.64,58475,15.0,73714.5,1.95,-0.49,-0.37,0,*72
1504612976.83,58476,15.06,73724.0,1.95,-0.41,-0.33,0,*7D
1504612978.01,58477,15.0,73728.8,1.95,-0.65,-0.65,0,*79
1504612979.24,58478,15.06,73728.3,1.95,-1.13,-1.13,0,*76
1504612980.44,58479,15.0,73720.3,1.95,-1.29,-1.29,0,*77
1504612981.65,58480,15.0,73716.3,1.95,-0.89,-0.77,0,*70
1504612982.86,58481,15.0,73714.0,1.95,-0.85,-0.77,0,*7D
1504612984.06,58482,15.0,73708.8,1.93,-0.65,-0.65,0,*75
1504612985.24,58483,15.0,73714.8,1.95,-0.65,-0.73,0,*75
1504612986.46,58484,15.06,73716.0,1.95,-1.29,-1.35,0,*78
1504612987.7,58485,15.0,73714.5,1.95,-1.01,-0.97,0,*4A
1504612988.95,58486,15.0,73712.5,1.93,-0.97,-0.89,0,*7E
1504612990.16,58487,15.06,73718.0,1.93,-0.73,-0.53,0,*72
1504612991.37,58488,15.06,73718.0,1.93,-0.77,-0.73,0,*7B
1504612992.58,58489,15.06,73714.3,1.95,-0.41,-0.27,0,*78
1504612993.78,58490,15.0,73714.3,1.95,-0.23,0.01,0,*6D
1504612995.0,58491,15.0,73716.8,1.97,-0.23,-0.07,0,*45
1504612996.2,58492,15.0,73716.8,1.97,-0.19,-0.07,0,*4F
1504612997.39,58493,15.06,73718.8,1.99,-0.53,-0.33,0,*79
1504612998.57,58494,15.06,73718.8,1.99,-0.69,-0.53,0,*71
1504612999.8,58495,15.0,73718.5,1.99,-1.01,-0.89,0,*48
1504613000.98,58496,15.0,73716.5,1.99,-0.77,-0.57,0,*78
1504613002.16,58497,15.06,73718.3,1.99,-0.57,-0.45,0,*78
1504613003.37,58498,15.06,73714.0,2.01,-0.53,-0.53,0,*76
1504613004.6,58499,15.0,73714.0,2.01,-0.81,-0.89,0,*7F
1504613005.86,58500,15.0,73714.0,2.01,-1.01,-1.01,0,*76
1504613007.04,58501,15.0,73714.0,1.99,-0.53,-0.45,0,*72
1504613008.22,58502,15.06,73718.3,1.99,-0.57,-0.57,0,*76
1504613009.45,58503,15.06,73716.8,2.01,-0.29,-0.27,0,*7B
1504613010.66,58504,15.0,73710.5,2.01,-0.29,-0.19,0,*71
1504613011.84,58505,15.0,73712.5,2.03,-0.15,-0.11,0,*75
1504613013.02,58506,15.06,73716.5,2.03,-0.11,0.01,0,*6E
1504613014.23,58507,15.06,73716.0,2.01,-0.53,-0.53,0,*71
1504613015.41,58508,15.06,73716.3,2.03,-0.65,-0.61,0,*78
1504613016.59,58509,15.06,73718.0,2.03,-0.49,-0.41,0,*75
1504613017.8,58510,15.0,73716.5,2.07,-0.23,-0.11,0,*70
1504613019.05,58511,15.0,73718.3,1.99,-5.27,-5.23,0,*70
1504613020.31,58512,15.0,73718.8,1.97,-1.83,-1.91,0,*7A
1504613021.51,58513,15.0,73708.8,1.97,-0.61,-0.57,0,*7D
1504613022.76,58514,15.0,73708.3,1.97,-0.97,-0.85,0,*7C
1504613023.97,58515,15.06,73706.3,1.97,-1.33,-1.25,0,*79
1504613025.18,58516,15.06,73714.0,1.97,-0.73,-0.61,0,*7E
1504613026.36,58517,15.0,73710.3,1.99,-0.41,-0.33,0,*77
1504613027.56,58518,15.0,73714.5,1.99,-0.29,-0.27,0,*73
1504613028.75,58519,15.06,73718.5,1.99,-0.57,-0.45,0,*7F
1504613029.92,58520,15.0,73712.5,1.99,-0.33,-0.29,0,*7D
1504613031.15,58521,15.0,73712.8,2.01,-0.33,-0.27,0,*70
1504613032.35,58522,15.06,73714.3,2.01,-0.53,-0.29,0,*7B
1504613033.59,58523,15.06,73708.3,2.01,-0.27,-0.15,0,*76
1504613034.77,58524,15.0,73712.3,2.03,-0.15,-0.15,0,*72
1504613036.0,58525,15.0,73712.8,2.03,-0.23,-0.23,0,*73
1504613037.19,58526,15.0,73712.3,2.03,-0.15,-0.11,0,*74
1504613038.42,58527,15.0,73714.0,2.03,-0.23,-0.23,0,*71
1504613039.65,58528,15.0,73712.5,2.03,-0.97,-0.97,0,*7E
1504613040.86,58529,15.06,73714.5,2.03,-0.37,-0.27,0,*7E
1504613042.07,58530,15.0,73714.0,2.03,-0.37,-0.27,0,*76
1504613043.27,58531,15.0,73712.3,2.03,-0.33,-0.27,0,*73
1504613044.46,58532,15.0,73714.3,2.03,0.01,0.13,0,*46
1504613045.64,58533,15.06,73712.5,2.03,-0.15,-0.15,0,*74
1504613046.84,58534,15.0,73712.8,2.05,-0.29,-0.29,0,*75
1504613048.1,58535,15.06,73716.8,2.05,-0.23,-0.27,0,*70
1504613049.31,58536,15.0,73716.3,2.05,-0.37,-0.37,0,*77
1504613050.52,58537,15.0,73718.0,2.05,-0.53,-0.53,0,*76
1504613051.77,58538,15.0,73716.5,2.05,-0.97,-0.97,0,*79
1504613053.03,58539,15.0,73712.8,2.05,-0.85,-0.85,0,*78
1504613054.29,58540,15.0,73712.0,2.05,-0.89,-1.01,0,*47
1504613055.54,58541,15.06,73712.5,2.05,-1.39,-1.51,0,*79
1504613056.73,58542,15.06,73712.5,2.03,-1.17,-1.29,0,*7F
1504613057.92,58543,15.0,73708.8,2.03,-0.73,-0.65,0,*74
1504613059.15,58544,15.0,73704.3,2.03,-0.85,-0.89,0,*78
1504613060.42,58545,15.0,73696.3,2.01,-1.39,-1.43,0,*7A
1504613061.65,58546,15.0,73686.8,2.03,-0.97,-0.97,0,*76
1504613062.88,58547,15.0,73682.3,2.03,-0.89,-0.85,0,*7B
1504613064.1,58548,15.0,73682.5,2.01,-1.29,-1.33,0,*71
1504613065.35,58549,15.0,73686.5,2.03,-1.39,-1.47,0,*70
1504613066.61,58550,15.06,73690.3,2.01,-2.03,-1.95,0,*7F
1504613067.8,58551,15.0,73706.3,2.03,-1.29,-1.29,0,*70
1504613069.05,58552,15.0,73698.3,2.01,-0.93,-0.89,0,*7A
1504613070.23,58553,15.0,73688.3,2.03,-0.29,-0.29,0,*72
1504613071.48,58554,15.0,73694.3,2.01,-0.93,-0.89,0,*7C
1504613072.68,58555,15.06,73702.5,2.01,-0.53,-0.29,0,*7B
1504613073.89,58556,15.06,73714.3,2.01,-0.29,-0.11,0,*7E
1504613075.12,58557,15.0,73710.8,2.03,-0.27,-0.23,0,*72
1504613076.33,58558,15.0,73710.0,2.03,-0.41,-0.27,0,*79
1504613077.5,58559,15.0,73714.3,2.03,-0.03,0.01,0,*57
1504613078.74,58560,15.0,73710.8,2.05,0.25,0.25,0,*74
1504613079.92,58561,15.0,73714.5,2.07,-0.15,-0.03,0,*40
1504613081.1,58562,15.0,73712.3,2.07,-0.41,-0.37,0,*75
1504613082.36,58563,15.0,73710.3,2.05,-0.27,-0.27,0,*77
1504613083.54,58564,15.0,73710.5,2.07,-0.45,-0.37,0,*77
1504613084.72,58565,15.0,73710.8,2.07,-0.45,-0.49,0,*7F
1504613085.9,58566,15.06,73712.0,2.07,-0.69,-0.57,0,*7D
1504613087.08,58567,15.0,73710.0,2.07,-0.45,-0.45,0,*71
1504613088.28,58568,15.06,73712.0,2.07,-0.85,-0.81,0,*7A
1504613089.48,58569,15.0,73708.3,2.07,-0.85,-0.81,0,*7B
1504613090.69,58570,15.06,73708.8,2.07,-0.81,-0.85,0,*73
1504613091.91,58571,15.0,73704.3,2.07,-0.97,-0.85,0,*75
1504613093.12,58572,15.0,73706.8,2.05,-0.37,-0.37,0,*77
1504613094.3,58573,15.0,73706.0,2.07,-0.11,-0.07,0,*43
1504613095.47,58574,15.06,73706.5,2.07,-0.07,0.05,0,*5C
1504613096.64,58575,15.06,73702.5,2.11,-0.03,0.09,0,*52
1504613097.84,58576,15.06,73706.0,2.13,-0.07,0.05,0,*5B
1504613099.01,58577,15.0,73708.8,2.11,-0.07,-0.03,0,*73
1504613100.22,58578,15.0,73708.8,2.13,-0.29,-0.19,0,*79
1504613101.43,58579,15.0,73706.0,2.13,-0.45,-0.41,0,*7F
1504613102.64,58580,15.0,73704.3,2.13,-0.19,-0.19,0,*7D
1504613103.85,58581,15.0,73704.5,2.13,-0.29,-0.19,0,*7F
1504613105.07,58582,15.0,73702.8,2.15,0.21,0.37,0,*7E
1504613106.25,58583,15.0,73704.3,2.15,0.09,0.13,0,*43
1504613107.51,58584,15.0,73702.0,2.17,-0.27,-0.27,0,*7D
1504613108.7,58585,15.0,73696.8,2.15,-0.11,-0.11,0,*7E
1504613109.94,58586,15.0,73700.5,2.17,0.21,0.21,0,*7F
1504613111.18,58587,15.0,73700.3,2.17,0.33,0.33,0,*7E
1504613112.39,58588,15.0,73700.8,2.19,0.29,0.37,0,*70
1504613113.6,58589,15.0,73706.8,2.19,0.67,0.67,0,*7E
1504613114.84,58590,15.06,73708.5,2.21,0.29,0.41,0,*73
1504613116.01,58591,15.0,73706.3,2.23,-0.03,-0.03,0,*7E
1504613117.22,58592,15.0,73706.5,2.21,-0.45,-0.45,0,*7F
1504613118.45,58593,15.0,73702.5,2.21,-1.55,-1.67,0,*7F
1504613119.68,58594,15.0,73698.8,2.21,-0.93,-0.81,0,*7A
1504613120.86,58595,15.0,73698.0,2.19,-0.81,-0.77,0,*7A
1504613122.08,58596,15.0,73694.3,2.21,-0.81,-0.77,0,*72
1504613123.3,58597,15.0,73698.8,2.21,-0.41,-0.33,0,*7F
1504613124.54,58598,15.0,73702.8,2.21,0.21,0.41,0,*73
1504613125.72,58599,15.0,73698.5,2.19,-0.37,-0.29,0,*70
1504613126.93,58600,15.0,73698.5,2.21,-0.41,-0.29,0,*79
1504613128.12,58601,15.0,73696.0,2.21,0.05,0.09,0,*7A
1504613129.33,58602,15.0,73698.5,2.23,-0.23,-0.11,0,*76
1504613130.57,58603,15.0,73696.0,2.25,0.13,0.25,0,*75
1504613131.74,58604,15.0,73694.8,2.23,-0.07,-0.03,0,*75
1504613132.98,58605,15.0,73700.0,2.25,0.21,0.25,0,*72
1504613134.22,58606,15.0,73702.5,2.25,0.21,0.33,0,*76
1504613135.47,58607,15.0,73700.0,2.25,0.47,0.59,0,*7B
1504613136.66,58608,15.0,73698.8,2.27,0.25,0.43,0,*79
1504613137.88,58609,15.0,73702.5,2.27,0.33,0.47,0,*7B
1504613139.1,58610,15.0,73702.0,2.27,0.47,0.59,0,*7F
1504613140.34,58611,15.0,73702.0,2.29,0.47,0.59,0,*70
1504613141.58,58612,15.0,73704.8,2.29,0.37,0.51,0,*7C
1504613142.82,58613,15.0,73704.0,2.29,0.63,0.79,0,*76
1504613144.03,58614,15.06,73706.5,2.35,0.51,0.51,0,*77
1504613145.22,58615,15.0,73704.0,2.35,-1.79,-1.59,0,*74
1504613146.4,58616,15.0,73702.5,2.35,-0.65,-0.69,0,*79
1504613147.61,58617,15.0,73700.5,2.33,-0.45,-0.45,0,*72
1504613148.77,58618,15.0,73702.3,2.35,-0.07,0.01,0,*50
1504613149.98,58619,15.0,73704.3,2.33,-0.57,-0.61,0,*79
1504613151.18,58620,15.0,73700.3,2.33,-0.49,-0.49,0,*76
1504613152.38,58621,15.0,73702.3,2.33,-0.03,-0.03,0,*77
1504613153.55,58622,15.0,73700.0,2.35,0.05,-0.07,0,*5D
1504613154.79,58623,15.0,73700.5,2.33,-0.23,-0.37,0,*70
1504613155.97,58624,15.0,73694.5,2.27,-0.65,-0.65,0,*77
1504613157.17,58625,15.0,73698.0,2.29,-0.61,-0.73,0,*7B
1504613158.37,58626,15.0,73698.3,2.29,-0.33,-0.37,0,*7F
1504613159.55,58627,15.0,73698.3,2.29,0.01,0.01,0,*7A
1504613160.74,58628,15.0,73698.0,2.29,0.05,0.05,0,*75
1504613161.97,58629,15.0,73696.3,2.29,-0.23,-0.33,0,*75
1504613163.2,58630,15.0,73702.0,2.29,-0.27,-0.45,0,*78
1504613164.4,58631,15.0,73702.3,2.29,-0.03,-0.15,0,*4A
1504613165.62,58632,15.0,73698.3,2.29,0.13,0.05,0,*49
1504613166.85,58633,15.0,73700.0,2.29,0.71,0.63,0,*7C
1504613168.07,58634,15.0,73702.3,2.29,0.13,0.05,0,*4F
1504613169.3,58635,15.0,73702.0,2.29,0.29,0.25,0,*75
1504613170.54,58636,15.0,73700.3,2.29,0.29,0.25,0,*76
1504613171.75,58637,15.06,73706.8,2.29,0.13,-0.03,0,*67
1504613172.99,58638,15.0,73706.0,2.33,-0.27,-0.37,0,*7E
1504613174.21,58639,15.06,73702.0,2.33,-0.57,-0.85,0,*71
1504613175.42,58640,15.0,73698.5,2.33,-0.45,-0.45,0,*70
1504613176.63,58641,15.0,73690.3,2.33,0.13,0.01,0,*42
1504613177.85,58642,15.0,73692.3,2.33,0.13,0.05,0,*45
1504613179.09,58643,15.0,73696.0,2.33,0.51,0.51,0,*73
1504613180.36,58644,15.0,73698.8,2.33,-1.13,-1.43,0,*71
1504613181.57,58645,15.0,73690.5,2.27,-1.59,-1.87,0,*73
1504613182.79,58646,15.0,73678.3,2.27,-1.47,-1.63,0,*75
1504613183.97,58647,15.0,73686.5,2.27,-0.61,-0.73,0,*71
1504613185.19,58648,15.0,73692.0,2.25,0.13,0.09,0,*44
1504613186.37,58649,15.0,73688.8,2.25,0.01,0.01,0,*7E
1504613187.59,58650,15.0,73694.0,2.25,0.47,0.43,0,*72
1504613188.81,58651,15.0,73694.5,2.27,0.75,0.67,0,*76
1504613190.05,58652,15.0,73696.5,2.29,0.63,0.59,0,*71
1504613191.28,58653,15.0,73696.0,2.29,0.29,0.17,0,*74
1504613192.52,58654,15.0,73696.8,2.33,0.47,0.41,0,*73
1504613193.7,58655,15.0,73696.8,2.35,0.43,0.33,0,*75
1504613194.92,58656,15.06,73696.0,2.35,0.51,0.51,0,*71
1504613196.16,58657,15.0,73696.3,2.33,0.75,0.63,0,*71
1504613197.38,58658,15.0,73694.5,2.35,0.79,0.75,0,*73
1504613198.57,58659,15.0,73698.5,2.37,1.05,1.05,0,*7C
1504613199.81,58660,15.0,73692.3,2.39,0.71,0.71,0,*78
1504613201.04,58661,15.0,73694.0,2.39,0.25,0.25,0,*79
1504613202.29,58662,15.0,73696.0,2.39,0.59,0.55,0,*76
1504613203.5,58663,15.0,73696.0,2.41,0.29,0.17,0,*79
1504613204.72,58664,15.0,73694.3,2.41,0.41,0.37,0,*72
1504613205.94,58665,15.0,73698.8,2.41,0.17,0.17,0,*72
1504613207.13,58666,15.0,73698.0,2.41,0.13,-0.03,0,*6D
1504613208.37,58667,15.0,73696.5,2.43,0.17,0.13,0,*76
1504613209.56,58668,15.0,73696.8,2.41,-0.03,-0.11,0,*4C
1504613210.77,58669,15.0,73698.8,2.41,-0.27,-0.45,0,*7A
1504613211.98,58670,15.0,73694.8,2.41,-0.27,-0.37,0,*77
1504613213.19,58671,15.0,73700.0,2.41,-0.69,-0.85,0,*75
1504613214.39,58672,15.0,73696.3,2.39,-0.61,-0.65,0,*7F
1504613215.63,58673,15.0,73696.5,2.39,-1.05,-1.17,0,*79
1504613216.85,58674,15.0,73698.8,2.37,-1.05,-1.29,0,*7D
1504613218.09,58675,15.0,73694.0,2.37,-0.85,-1.09,0,*47
1504613219.32,58676,15.0,73692.8,2.37,-1.05,-1.21,0,*77
1504613220.52,58677,15.0,73692.8,2.35,-0.81,-0.97,0,*75
1504613221.7,58678,15.0,73696.5,2.35,-0.33,-0.45,0,*7C
1504613222.89,58679,15.0,73698.0,2.35,-0.11,-0.19,0,*74
1504613224.07,58680,15.0,73692.5,2.35,-0.53,-0.53,0,*7A
1504613225.25,58681,15.0,73700.0,2.35,-0.19,-0.29,0,*78
1504613226.41,58682,15.0,73696.5,2.35,0.05,0.05,0,*78
1504613227.64,58683,15.0,73698.5,2.37,0.55,0.51,0,*7F
1504613228.88,58684,15.0,73696.8,2.39,0.21,0.13,0,*73
1504613230.04,58685,15.0,73698.3,2.37,0.05,0.01,0,*79
1504613231.26,58686,15.0,73698.0,2.37,0.33,0.29,0,*75
1504613232.5,58687,15.0,73698.3,2.39,0.47,0.47,0,*71
1504613233.74,58688,15.0,73698.3,2.39,0.71,0.67,0,*79
1504613234.97,58689,15.0,73696.8,2.41,0.51,0.51,0,*70
1504613236.21,58690,15.0,73696.0,2.43,0.75,0.75,0,*7A
1504613237.44,58691,15.0,73694.8,2.45,0.91,0.87,0,*7A
1504613238.65,58692,15.0,73698.8,2.45,0.33,0.29,0,*75
1504613239.87,58693,15.0,73696.3,2.47,0.51,0.43,0,*7E
1504613241.1,58694,15.0,73698.0,2.47,0.67,0.67,0,*7A
1504613242.3,58695,15.0,73700.0,2.49,0.47,0.43,0,*71
1504613243.51,58696,15.06,73700.8,2.49,0.59,0.67,0,*7B
1504613244.75,58697,15.0,73696.3,2.51,0.79,0.71,0,*76
1504613245.99,58698,15.0,73702.5,2.51,0.47,0.33,0,*72
1504613247.19,58699,15.0,73700.5,2.51,0.05,-0.03,0,*5B
1504613248.41,58700,15.06,73702.8,2.51,-0.77,-0.89,0,*70
1504613249.6,58701,15.0,73696.3,2.49,-1.51,-1.67,0,*7C
1504613250.82,58702,15.0,73694.3,2.49,-1.75,-1.99,0,*78
1504613252.03,58703,15.0,73686.5,2.47,-0.57,-0.73,0,*73
1504613253.24,58704,15.0,73692.8,2.47,-0.65,-0.57,0,*73
1504613254.47,58705,15.0,73698.8,2.45,-0.85,-1.05,0,*48
1504613255.69,58706,15.0,73696.8,2.45,-1.91,-2.15,0,*7D
1504613256.94,58707,15.0,73692.5,2.41,-1.99,-2.11,0,*74
1504613258.14,58708,15.06,73702.8,2.41,-1.51,-1.71,0,*7A
1504613259.33,58709,15.0,73700.0,2.41,-1.51,-1.75,0,*7F
1504613260.58,58710,15.0,73688.8,2.37,-1.83,-2.07,0,*7F
1504613261.8,58711,15.0,73686.5,2.37,-1.05,-1.29,0,*7F
1504613263.04,58712,15.0,73688.5,2.37,-0.85,-1.09,0,*47
1504613264.22,58713,15.0,73698.3,2.37,-0.45,-0.57,0,*70
1504613265.43,58714,15.0,73698.8,2.37,-0.23,-0.29,0,*7E
1504613266.64,58715,15.0,73688.0,2.39,-0.73,-0.81,0,*76
1504613267.81,58716,15.0,73694.3,2.37,-0.29,-0.29,0,*76
1504613269.0,58717,15.06,73698.3,2.37,-0.45,-0.45,0,*77
1504613270.19,58718,15.0,73686.0,2.39,0.05,-0.03,0,*5D
1504613271.39,58719,15.0,73688.3,2.39,0.05,-0.07,0,*58
1504613272.59,58720,15.0,73698.8,2.39,-0.29,-0.53,0,*70
1504613273.8,58721,15.0,73698.0,2.39,-0.65,-0.77,0,*7F
1504613274.99,58722,15.0,73694.8,2.41,-0.45,-0.49,0,*7C
1504613276.19,58723,15.0,73696.0,2.41,-0.03,-0.23,0,*43
1504613277.38,58724,15.0,73692.8,2.41,-0.45,-0.49,0,*7A
1504613278.54,58725,15.06,73700.3,2.41,0.01,0.01,0,*77
1504613279.73,58726,15.0,73698.5,2.41,0.17,0.09,0,*4B
1504613280.95,58727,15.0,73700.0,2.41,0.41,0.29,0,*7B
1504613282.21,58728,15.0,73702.0,2.43,-0.23,-0.27,0,*7C
1504613283.48,58729,15.0,73702.8,2.43,-1.01,-1.13,0,*7A
1504613284.7,58730,15.0,73696.0,2.41,-1.35,-1.59,0,*79
1504613285.91,58731,15.0,73688.3,2.41,-1.63,-1.83,0,*7C
1504613287.16,58732,15.0,73684.8,2.41,-1.35,-1.43,0,*70
1504613288.41,58733,15.0,73686.8,2.39,-0.93,-1.01,0,*45
1504613289.62,58734,15.0,73682.5,2.39,-0.41,-0.53,0,*7B
1504613290.85,58735,15.0,73688.8,2.39,-0.65,-0.89,0,*7B
1504613292.05,58736,15.0,73684.3,2.39,-0.49,-0.53,0,*71
1504613293.28,58737,15.0,73694.3,2.39,-0.19,-0.27,0,*76
1504613294.54,58738,15.0,73692.5,2.39,-0.27,-0.27,0,*74
1504613295.77,58739,15.0,73684.3,2.39,0.13,0.13,0,*75
1504613297.02,58740,15.0,73688.0,2.39,0.25,0.21,0,*7F
1504613298.21,58741,15.0,73684.8,2.43,0.09,0.09,0,*77
1504613299.45,58742,15.0,73682.8,2.43,0.13,0.17,0,*70
1504613300.7,58743,15.0,73688.0,2.43,0.51,0.51,0,*75
1504613301.91,58744,15.0,73690.5,2.45,0.37,0.29,0,*7B
1504613303.12,58745,15.0,73690.0,2.45,0.67,0.67,0,*75
1504613304.36,58746,15.0,73696.8,2.47,0.75,0.67,0,*77
1504613305.57,58747,15.0,73702.3,2.49,0.83,0.79,0,*7E
1504613306.79,58748,15.0,73700.5,2.49,0.37,0.17,0,*76
1504613308.0,58749,15.0,73700.0,2.49,0.25,0.17,0,*74
1504613309.24,58750,15.0,73698.0,2.51,-1.25,-1.39,0,*79
1504613310.48,58751,15.0,73684.8,2.49,-1.87,-2.03,0,*73
1504613311.72,58752,15.0,73646.0,2.47,-2.47,-2.79,0,*7C
1504613312.97,58753,15.0,73658.5,2.43,-1.13,-1.33,0,*76
1504613314.22,58754,15.0,73664.8,2.43,-1.09,-1.21,0,*79
1504613315.45,58755,15.0,73684.5,2.43,-0.69,-0.85,0,*70
1504613316.65,58756,15.0,73672.0,2.43,-0.61,-1.25,0,*40
1504613317.88,58757,15.0,73674.0,2.41,-2.75,-2.99,0,*70
1504613319.15,58758,15.0,73678.8,2.39,-1.39,-1.47,0,*7B
1504613320.36,58759,15.0,73680.3,2.39,-0.37,-0.41,0,*72